MINOTAUR 4 DEB, 54256

Orbit data source: Space-Track

MINOTAUR 4 DEB, 54256 is space debris in LEO originally from a launch on Wed, 15 Jul 2020 UTC launched from the Wallops Island (WLPIS). Debris objects in space refer to the collection of defunct objects orbiting the Earth. Examples of debris include non-operational satellites, rocket bodies, and fragments generated from explosions, collisions, or faulty payload assembly.

Loading next visibility...
Identifier
54256, 2020-046AK
Orbit
LEO
Country
Flag of USUS
Related business
Manufacturer
NGIS FSG
Mission
Spacecraft
Bus & Motor
Unknown
Mass
Unknown
Launch date (UTC)
2020-07-15 (6 years ago)
Launch vehicle
Unknown
Launch site
Wallops Island (WLPIS)
Object type
Payload
Rocket body
Debris
Shape & HBR
Unknown shape, 0.1 m
Radar Cross Section
Small (<0.1 m²)

Expand to show TLE details & history
Last TLE update: 2 days ago

TLE from 2 days ago
0 MINOTAUR 4 DEB
1 54256U 20046AK  26132.11404205  .00015239  00000-0  48007-3 0  9997
2 54256  54.2344  41.0193 0017672 106.9899 253.3055 15.33007995240741
Epoch: 2026-05-12T02:44Z
TLE epoch observation values (Epoch: 2026-05-12T02:44:13.233Z)
Latitude
-0.00002°
Longitude
130.07108°
Altitude
471.354 km
Speed
7.63 km/s
True Right ascension
02h 44m 04s
True Declination
0° 00' 00"
Sunlit
Object was in daylight at epoch
Visualization orbit readout
Latitude
Unknown
Longitude
Unknown
Altitude
Unknown
Speed
Unknown
Apparent Right ascension
Unknown
Apparent Declination
Unknown
Sunlit
N/A
Visualization observer readout
Local Sidereal Time
00:16:36
Azimuth
Unknown
Elevation
Unknown
Doppler factor
Unknown
Orbital elements
Apogee altitude
479.024 km
Perigee altitude
454.831 km
Semi-major axis
6,845.065 km
Eccentricity
0.00177
Inclination
54.2344°
RAAN
41.0193°
Arg. of periapsis
106.9899°
True anomaly
253.11165°
Mean anomaly
253.3055°
Eccentric anomaly
253.20856°
Mean motion
3.83245 °/min
Orbital period
93.93 mins
BSTAR
0.00048007
Loading maneuver chart data...
Computing Atmospheric mass density...

Documentation

Showing up to 5 results
|